User: anonymous   Login
Location: Eckley
(40.9930°N, 75.8630°W)
Time: 20:14:41
(UTC-04:00)
Language:

Cosmos 2221 Rocket - Orbit

View from above orbital plane
View from above orbital plane
View from above satellite
View from above satellite

Ground track
Ground track

The orbit data is extracted from the following two-line orbital elements,

1 22237U 92080B   17289.36426588  .00000051  00000-0  38233-5 0  9994
2 22237  82.5149   5.0018 0020142 165.1260 241.6266 14.78332049341344
Epoch (UTC): 16 October 2017 08:44:32
Eccentricity: 0.0020142
inclination: 82.5149°
perigee height: 620 km
apogee height: 649 km
right ascension of ascending node: 5.0018°
argument of perigee: 165.1260°
revolutions per day: 14.78332049
mean anomaly at epoch: 241.6266°
orbit number at epoch: 34134

The dashed part of the orbit path shows where the satellite is in the earth's shadow,  

DLR